• In Belgium
  • List of Countries
  • For 7 days
  • Water Temperature
  • Satellite Maps
  • Weather Map
  • Weather Widgets
  • user-avatar
    Login

    Hourly Weather Pamplona

    Today, 17 January, Wednesday

    Time Temperature Precipitation Wind Pressure Humidity
    00:00 +9°C° 0 mm 3 mps 723 mmHg 91%
    01:00 +8°C° 0.2 mm 4 mps 723 mmHg 92%
    02:00 +8°C° 0.2 mm 4 mps 723 mmHg 92%
    03:00 +8°C° 0.2 mm 5 mps 723 mmHg 92%
    04:00 +7°C° 0.2 mm 5 mps 723 mmHg 91%
    05:00 +7°C° 0.2 mm 5 mps 724 mmHg 91%
    06:00 +6°C° 0.2 mm 5 mps 724 mmHg 90%
    07:00 +6°C° 0.2 mm 5 mps 724 mmHg 89%
    08:00 +6°C° 0.2 mm 5 mps 725 mmHg 89%
    09:00 +6°C° 0.2 mm 5 mps 725 mmHg 88%
    10:00 +5°C° 0.1 mm 6 mps 725 mmHg 85%
    11:00 +5°C° 0.1 mm 6 mps 725 mmHg 83%
    12:00 +7°C° 0.1 mm 6 mps 726 mmHg 80%
    13:00 +7°C° 0.1 mm 6 mps 726 mmHg 80%
    14:00 +6°C° 0.1 mm 5 mps 726 mmHg 80%
    15:00 +6°C° 0.1 mm 5 mps 725 mmHg 79%
    16:00 +6°C° 0.1 mm 4 mps 726 mmHg 82%
    17:00 +5°C° 0.1 mm 3 mps 726 mmHg 85%
    18:00 +5°C° 0.1 mm 3 mps 726 mmHg 88%
    19:00 +6°C° 0 mm 2 mps 726 mmHg 89%
    20:00 +5°C° 0 mm 2 mps 727 mmHg 91%
    21:00 +5°C° 0 mm 2 mps 727 mmHg 92%
    22:00 +5°C° 0 mm 2 mps 726 mmHg 92%
    23:00 +5°C° 0 mm 1 mps 726 mmHg 92%

    Tomorrow, 18 January, Thursday

    Time Temperature Precipitation Wind Pressure Humidity
    00:00 +5°C° 0 mm 1 mps 726 mmHg 92%
    01:00 +5°C° 0 mm 1 mps 726 mmHg 91%
    02:00 +5°C° 0 mm 1 mps 725 mmHg 91%
    03:00 +4°C° 0 mm 1 mps 725 mmHg 91%
    04:00 +4°C° 0 mm 1 mps 725 mmHg 90%
    05:00 +4°C° 0 mm 1 mps 724 mmHg 90%
    06:00 +4°C° 0 mm 1 mps 724 mmHg 89%
    07:00 +5°C° 0 mm 1 mps 724 mmHg 87%
    08:00 +5°C° 0 mm 1 mps 724 mmHg 85%
    09:00 +6°C° 0 mm 1 mps 724 mmHg 83%
    10:00 +8°C° 0 mm 1 mps 724 mmHg 78%
    11:00 +9°C° 0 mm 1 mps 724 mmHg 72%
    12:00 +11°C° 0 mm 1 mps 724 mmHg 67%
    13:00 +12°C° 0 mm 1 mps 723 mmHg 65%
    14:00 +12°C° 0 mm 1 mps 723 mmHg 64%
    15:00 +12°C° 0 mm 1 mps 722 mmHg 63%
    16:00 +11°C° 0 mm 1 mps 722 mmHg 69%
    17:00 +9°C° 0 mm 1 mps 722 mmHg 75%
    18:00 +7°C° 0 mm 1 mps 722 mmHg 81%
    19:00 +7°C° 0 mm 1 mps 722 mmHg 82%
    20:00 +8°C° 0 mm 1 mps 722 mmHg 82%
    21:00 +8°C° 0 mm 1 mps 722 mmHg 83%
    22:00 +8°C° 0 mm 1 mps 722 mmHg 83%
    23:00 +8°C° 0 mm 1 mps 722 mmHg 84%

    Day after tomorrow, 19 January, Friday

    Time Temperature Precipitation Wind Pressure Humidity
    00:00 +8°C° 0 mm 1 mps 722 mmHg 84%
    01:00 +8°C° 0.1 mm 1 mps 721 mmHg 85%
    02:00 +8°C° 0.1 mm 1 mps 721 mmHg 86%
    03:00 +7°C° 0.1 mm 2 mps 721 mmHg 87%
    04:00 +7°C° 0.1 mm 2 mps 721 mmHg 87%
    05:00 +7°C° 0.1 mm 2 mps 721 mmHg 88%
    06:00 +7°C° 0.1 mm 2 mps 721 mmHg 89%
    07:00 +7°C° 0.2 mm 2 mps 722 mmHg 89%
    08:00 +7°C° 0.2 mm 3 mps 722 mmHg 89%
    09:00 +8°C° 0.2 mm 3 mps 723 mmHg 89%
    10:00 +7°C° 0.1 mm 4 mps 723 mmHg 87%
    11:00 +7°C° 0.1 mm 4 mps 723 mmHg 85%
    12:00 +7°C° 0.1 mm 4 mps 723 mmHg 83%
    13:00 +7°C° 0.1 mm 5 mps 723 mmHg 81%
    14:00 +7°C° 0.1 mm 5 mps 723 mmHg 80%
    15:00 +7°C° 0.1 mm 5 mps 722 mmHg 78%
    16:00 +6°C° 0.1 mm 4 mps 723 mmHg 82%
    17:00 +6°C° 0.1 mm 4 mps 723 mmHg 86%
    18:00 +5°C° 0.1 mm 3 mps 723 mmHg 90%
    19:00 +5°C° 0.2 mm 3 mps 724 mmHg 90%
    20:00 +5°C° 0.2 mm 3 mps 724 mmHg 90%
    21:00 +5°C° 0.2 mm 3 mps 725 mmHg 91%
    22:00 +5°C° 0.3 mm 3 mps 725 mmHg 90%
    23:00 +5°C° 0.3 mm 3 mps 725 mmHg 90%

    20 January, Saturday

    Time Temperature Precipitation Wind Pressure Humidity
    00:00 +5°C° 0.3 mm 3 mps 725 mmHg 89%
    01:00 +5°C° 0.1 mm 3 mps 725 mmHg 89%
    02:00 +6°C° 0.1 mm 2 mps 724 mmHg 90%
    03:00 +5°C° 0.1 mm 2 mps 724 mmHg 90%
    04:00 +5°C° 0 mm 2 mps 724 mmHg 91%
    05:00 +5°C° 0 mm 2 mps 724 mmHg 91%
    06:00 +5°C° 0 mm 1 mps 724 mmHg 92%
    07:00 +5°C° 0 mm 2 mps 723 mmHg 90%
    08:00 +5°C° 0 mm 2 mps 723 mmHg 88%
    09:00 +6°C° 0 mm 2 mps 723 mmHg 85%
    10:00 +7°C° 0.1 mm 2 mps 723 mmHg 80%
    11:00 +8°C° 0.1 mm 3 mps 722 mmHg 75%
    12:00 +8°C° 0.1 mm 4 mps 722 mmHg 70%
    13:00 +9°C° 0.5 mm 3 mps 722 mmHg 74%
    14:00 +8°C° 0.5 mm 3 mps 721 mmHg 77%
    15:00 +8°C° 0.5 mm 3 mps 721 mmHg 81%
    16:00 +7°C° 1.1 mm 4 mps 721 mmHg 83%
    17:00 +8°C° 1.1 mm 4 mps 722 mmHg 86%
    18:00 +8°C° 1.1 mm 4 mps 722 mmHg 88%
    19:00 +8°C° 1.3 mm 5 mps 723 mmHg 89%
    20:00 +9°C° 1.3 mm 5 mps 723 mmHg 90%
    21:00 +9°C° 1.3 mm 6 mps 724 mmHg 92%
    22:00 +9°C° 0.5 mm 6 mps 724 mmHg 92%
    23:00 +9°C° 0.5 mm 6 mps 724 mmHg 92%

    21 January, Sunday

    Time Temperature Precipitation Wind Pressure Humidity
    00:00 +9°C° 0.5 mm 6 mps 724 mmHg 92%
    01:00 +9°C° 0.3 mm 5 mps 725 mmHg 92%
    02:00 +9°C° 0.3 mm 5 mps 725 mmHg 92%
    03:00 +9°C° 0.3 mm 5 mps 725 mmHg 92%
    04:00 +9°C° 0.3 mm 5 mps 725 mmHg 93%
    05:00 +10°C° 0.3 mm 4 mps 726 mmHg 93%
    06:00 +10°C° 0.3 mm 4 mps 726 mmHg 93%
    07:00 +10°C° 0.2 mm 4 mps 726 mmHg 93%
    08:00 +10°C° 0.2 mm 4 mps 727 mmHg 92%
    09:00 +10°C° 0.2 mm 4 mps 727 mmHg 91%
    10:00 +11°C° 0.1 mm 4 mps 727 mmHg 88%
    11:00 +11°C° 0.1 mm 4 mps 727 mmHg 85%
    12:00 +12°C° 0.1 mm 4 mps 727 mmHg 82%
    13:00 +12°C° 0.1 mm 4 mps 727 mmHg 81%
    14:00 +12°C° 0.1 mm 3 mps 727 mmHg 80%
    15:00 +12°C° 0.1 mm 3 mps 727 mmHg 80%
    16:00 +11°C° 0 mm 3 mps 727 mmHg 83%
    17:00 +10°C° 0 mm 2 mps 727 mmHg 87%
    18:00 +9°C° 0 mm 2 mps 727 mmHg 91%
    19:00 +9°C° 0 mm 2 mps 728 mmHg 91%
    20:00 +9°C° 0 mm 2 mps 728 mmHg 92%
    21:00 +8°C° 0 mm 2 mps 728 mmHg 93%
    22:00 +8°C° 0 mm 2 mps 728 mmHg 93%
    23:00 +9°C° 0 mm 1 mps 728 mmHg 93%

    22 January, Monday

    Time Temperature Precipitation Wind Pressure Humidity
    00:00 +9°C° 0 mm 1 mps 728 mmHg 94%
    01:00 +8°C° 0 mm 1 mps 728 mmHg 93%
    02:00 +8°C° 0 mm 1 mps 728 mmHg 93%
    03:00 +8°C° 0 mm 1 mps 727 mmHg 93%
    04:00 +8°C° 0 mm 1 mps 727 mmHg 93%
    05:00 +8°C° 0 mm 1 mps 727 mmHg 93%
    06:00 +7°C° 0 mm 1 mps 727 mmHg 92%
    07:00 +8°C° 0 mm 1 mps 727 mmHg 91%
    08:00 +9°C° 0 mm 1 mps 727 mmHg 89%
    09:00 +9°C° 0 mm 1 mps 728 mmHg 87%
    10:00 +11°C° 0 mm 1 mps 727 mmHg 81%
    11:00 +13°C° 0 mm 2 mps 727 mmHg 75%
    12:00 +14°C° 0 mm 2 mps 727 mmHg 69%
    13:00 +15°C° 0 mm 2 mps 727 mmHg 67%
    14:00 +15°C° 0 mm 2 mps 726 mmHg 66%
    15:00 +15°C° 0 mm 2 mps 726 mmHg 65%
    16:00 +14°C° 0 mm 1 mps 726 mmHg 72%
    17:00 +12°C° 0 mm 1 mps 726 mmHg 78%
    18:00 +10°C° 0 mm 1 mps 726 mmHg 85%
    19:00 +10°C° 0 mm 1 mps 726 mmHg 85%
    20:00 +9°C° 0 mm 1 mps 726 mmHg 85%
    21:00 +9°C° 0 mm 1 mps 726 mmHg 85%
    22:00 +9°C° 0 mm 1 mps 726 mmHg 83%
    23:00 +8°C° 0 mm 1 mps 726 mmHg 82%
    Show more